Regional Weather Roundup
Issued by NWS

Home | Current Version | Previous Version | Text Only | Print | Product List | Glossary Off
Versions: 1 2 3 4 5 6 7 8 9 10 11 12 13 14 15 16 17 18 19 20 21 22 23 24 25 26 27 28 29 30 31 32 33 34 35 36 37 38 39 40 41 42 43 44 45 46 47 48 49 50

415
ASUS45 KABQ 281601
RWRNM
NEW MEXICO REGIONAL WEATHER ROUNDUP
NATIONAL WEATHER SERVICE ALBUQUERQUE NM
1000 AM MDT THU JUL 28 2016

NOTE: "FAIR" MEANS FEW OR NO CLOUDS BELOW 12,000 FEET AGL WITH NO
       SIGNIFICANT WEATHER OR OBSTRUCTIONS TO VISION.

      THIS PRODUCT IS RELEASED AS TWO VERSIONS.  ONE VERSION NEAR
      THE TOP OF THE HOUR CONTAINING PRELIMINARY DATA FROM ALBUQUERQUE
      AND OTHER STATIONS.  A FINAL VERSION WITH ADDITIONAL DATA IS
      ISSUED ABOUT 10 MINUTES AFTER THE HOUR.

NMZ501-503-504-510>518-281700-
NORTHWEST PLATEAU/NORTHCENTRAL MOUNTAINS

CITY           SKY/WX    TMP DP  RH WIND       PRES   REMARKS
FARMINGTON     FAIR      83  47  28 SE16G23   30.22S
LOS ALAMOS     FAIR      74  49  40 CALM      30.39F
SANTA FE       FAIR      78  51  38 CALM      30.32F
TAOS           FAIR      73  41  31 CALM      30.41S
ANGEL FIRE     FAIR      69  51  51 CALM      30.48F

$$
NMZ402-403-502-505>509-281700-
WESTCENTRAL MOUNTAINS/SOUTHWEST MOUNTAINS

CITY           SKY/WX    TMP DP  RH WIND       PRES   REMARKS
GALLUP         FAIR      81  50  33 SW13      30.31S
GRANTS         FAIR      81  48  32 SE12G18   30.34S

$$
NMZ407-409-411-412-281700-
SOUTHERN DESERTS

CITY           SKY/WX    TMP DP  RH WIND       PRES   REMARKS
LORDSBURG      FAIR      82  54  36 CALM      30.15S
DEMING         FAIR      87  55  33 E9        30.15S
LAS CRUCES     FAIR      86  52  30 CALM      30.17S
HOLLOMAN AFB   FAIR      87  54  32 VRB6      30.13S
T OR C         FAIR      81  56  42 N5        30.20S

$$
NMZ519>523-281700-
CENTRAL VALLEYS/CENTRAL HIGHLANDS

CITY           SKY/WX    TMP DP  RH WIND       PRES   REMARKS
ALBUQUERQUE    FAIR      80  55  42 CALM      30.26F
DOUBLE EAGLE   MOSUNNY   79  54  41 VRB5      30.31R
MORIARTY ARPT  FAIR      74  54  49 CALM      30.33F
CLINES CORNERS FAIR      74  53  48 NW9       30.38F
BELEN          FAIR      80  50  35 E5        30.25S
SOCORRO        FAIR      80  51  36 NE3       30.22S

$$
NMZ524>526-539-540-281700-
SOUTHCENTRAL MOUNTAINS

CITY           SKY/WX    TMP DP  RH WIND       PRES   REMARKS
RUIDOSO        NOT AVBL

$$
NMZ527>531-281700-
NORTHEAST HIGHLANDS/NORTHEAST PLAINS

CITY           SKY/WX    TMP DP  RH WIND       PRES   REMARKS
LAS VEGAS      FAIR      80  48  32 S7        30.34F
RATON          FAIR     N/A N/A N/A SE3       30.29F
CLAYTON        FAIR      78  59  51 SE14      30.23F

$$
NMZ532>537-281700-
EASTCENTRAL PLAINS

CITY           SKY/WX    TMP DP  RH WIND       PRES   REMARKS
TUCUMCARI      FAIR      79  58  48 E7        30.18F
CANNON AFB     FAIR      79  60  51 E7        30.20
CLOVIS AIRPORT FAIR      81  55  41 E8        30.20F

$$
NMZ028-029-538-281700-
SOUTHEAST PLAINS

CITY           SKY/WX    TMP DP  RH WIND       PRES   REMARKS
ROSWELL        FAIR      82  59  45 N6        30.15S
ARTESIA        FAIR      82  61  47 N9        30.15S
CARLSBAD       FAIR      83  62  49 N9        30.12R
HOBBS          SUNNY     86  61  42 NE3       30.15S


$$




USA.gov is the U.S. government's official web portal to all federal, state and local government web resources and services.